When you browse on this site, cookies collect data to enhance your experience and personalize the content and advertising you see.
Visit our Privacy Policy to learn more. By continuing to use the site, you agree to this use of cookies and data.
  • In Portugal
  • List of Countries
  • For 7 days
  • Water Temperature
  • Satellite Maps
  • Weather Map
  • Weather Widgets
  • user-avatar
    Login

    Hourly Weather Hurghada

    Today, 22 March, Friday

    Time Temperature Precipitation Wind Pressure Humidity
    00:00 +18°C° 0 mm 2 mps 683 mmHg 28%
    01:00 +17°C° 0 mm 2 mps 683 mmHg 29%
    02:00 +17°C° 0 mm 2 mps 682 mmHg 30%
    03:00 +16°C° 0 mm 2 mps 682 mmHg 30%
    04:00 +16°C° 0 mm 2 mps 683 mmHg 31%
    05:00 +15°C° 0 mm 2 mps 683 mmHg 32%
    06:00 +17°C° 0 mm 2 mps 683 mmHg 28%
    07:00 +18°C° 0 mm 2 mps 684 mmHg 23%
    08:00 +19°C° 0 mm 2 mps 684 mmHg 19%
    09:00 +21°C° 0 mm 2 mps 684 mmHg 16%
    10:00 +23°C° 0 mm 2 mps 684 mmHg 14%
    11:00 +24°C° 0 mm 3 mps 685 mmHg 11%
    12:00 +25°C° 0 mm 3 mps 685 mmHg 11%
    13:00 +25°C° 0 mm 3 mps 684 mmHg 11%
    14:00 +25°C° 0 mm 4 mps 684 mmHg 11%
    15:00 +25°C° 0 mm 4 mps 684 mmHg 12%
    16:00 +25°C° 0 mm 4 mps 683 mmHg 12%
    17:00 +23°C° 0 mm 4 mps 683 mmHg 12%
    18:00 +22°C° 0 mm 3 mps 683 mmHg 14%
    19:00 +21°C° 0 mm 3 mps 683 mmHg 16%
    20:00 +20°C° 0 mm 2 mps 683 mmHg 18%
    21:00 +19°C° 0 mm 2 mps 683 mmHg 18%
    22:00 +18°C° 0 mm 2 mps 683 mmHg 18%
    23:00 +18°C° 0 mm 2 mps 683 mmHg 18%

    Tomorrow, 23 March, Saturday

    Time Temperature Precipitation Wind Pressure Humidity
    00:00 +18°C° 0 mm 1 mps 682 mmHg 19%
    01:00 +18°C° 0 mm 1 mps 682 mmHg 19%
    02:00 +16°C° 0 mm 1 mps 682 mmHg 20%
    03:00 +16°C° 0 mm 1 mps 682 mmHg 21%
    04:00 +16°C° 0 mm 1 mps 681 mmHg 22%
    05:00 +16°C° 0 mm 1 mps 681 mmHg 24%
    06:00 +18°C° 0 mm 1 mps 682 mmHg 23%
    07:00 +19°C° 0 mm 1 mps 682 mmHg 21%
    08:00 +19°C° 0 mm 2 mps 682 mmHg 20%
    09:00 +20°C° 0 mm 2 mps 682 mmHg 19%
    10:00 +23°C° 0 mm 2 mps 682 mmHg 17%
    11:00 +24°C° 0 mm 2 mps 682 mmHg 16%
    12:00 +25°C° 0 mm 2 mps 682 mmHg 16%
    13:00 +25°C° 0 mm 3 mps 681 mmHg 15%
    14:00 +26°C° 0 mm 3 mps 681 mmHg 15%
    15:00 +26°C° 0 mm 3 mps 681 mmHg 17%
    16:00 +25°C° 0 mm 3 mps 680 mmHg 18%
    17:00 +24°C° 0 mm 3 mps 680 mmHg 19%
    18:00 +22°C° 0.1 mm 3 mps 679 mmHg 22%
    19:00 +21°C° 0.1 mm 2 mps 679 mmHg 25%
    20:00 +20°C° 0.1 mm 2 mps 678 mmHg 27%
    21:00 +19°C° 0 mm 2 mps 678 mmHg 29%
    22:00 +19°C° 0 mm 2 mps 678 mmHg 30%
    23:00 +18°C° 0 mm 2 mps 677 mmHg 32%

    Day after tomorrow, 24 March, Sunday

    Time Temperature Precipitation Wind Pressure Humidity
    00:00 +18°C° 0 mm 2 mps 677 mmHg 34%
    01:00 +18°C° 0 mm 1 mps 676 mmHg 36%
    02:00 +18°C° 0 mm 1 mps 676 mmHg 38%
    03:00 +16°C° 0 mm 1 mps 676 mmHg 41%
    04:00 +16°C° 0 mm 1 mps 675 mmHg 43%
    05:00 +16°C° 0 mm 1 mps 675 mmHg 46%
    06:00 +18°C° 0 mm 1 mps 675 mmHg 44%
    07:00 +18°C° 0 mm 1 mps 676 mmHg 43%
    08:00 +19°C° 0 mm 1 mps 676 mmHg 41%
    09:00 +20°C° 0 mm 2 mps 677 mmHg 36%
    10:00 +21°C° 0 mm 3 mps 677 mmHg 31%
    11:00 +23°C° 0 mm 4 mps 677 mmHg 25%
    12:00 +25°C° 0 mm 5 mps 677 mmHg 22%
    13:00 +26°C° 0 mm 6 mps 677 mmHg 19%
    14:00 +26°C° 0 mm 7 mps 677 mmHg 16%
    15:00 +26°C° 0 mm 7 mps 676 mmHg 18%
    16:00 +24°C° 0 mm 8 mps 676 mmHg 20%
    17:00 +23°C° 0 mm 8 mps 676 mmHg 22%
    18:00 +22°C° 0 mm 8 mps 676 mmHg 23%
    19:00 +20°C° 0 mm 7 mps 677 mmHg 23%
    20:00 +18°C° 0 mm 7 mps 677 mmHg 24%
    21:00 +17°C° 0 mm 6 mps 677 mmHg 25%
    22:00 +17°C° 0 mm 5 mps 677 mmHg 26%
    23:00 +16°C° 0 mm 5 mps 677 mmHg 27%

    25 March, Monday

    Time Temperature Precipitation Wind Pressure Humidity
    00:00 +16°C° 0 mm 5 mps 677 mmHg 30%
    01:00 +15°C° 0 mm 4 mps 677 mmHg 33%
    02:00 +14°C° 0 mm 4 mps 677 mmHg 36%
    03:00 +13°C° 0 mm 4 mps 677 mmHg 38%
    04:00 +13°C° 0 mm 4 mps 677 mmHg 41%
    05:00 +12°C° 0 mm 4 mps 677 mmHg 43%
    06:00 +12°C° 0 mm 4 mps 677 mmHg 39%
    07:00 +12°C° 0 mm 5 mps 678 mmHg 35%
    08:00 +13°C° 0 mm 5 mps 678 mmHg 30%
    09:00 +14°C° 0 mm 5 mps 679 mmHg 28%
    10:00 +15°C° 0 mm 5 mps 679 mmHg 25%
    11:00 +16°C° 0 mm 6 mps 679 mmHg 22%
    12:00 +16°C° 0 mm 7 mps 679 mmHg 22%
    13:00 +17°C° 0 mm 7 mps 679 mmHg 21%
    14:00 +18°C° 0 mm 8 mps 679 mmHg 21%
    15:00 +17°C° 0 mm 8 mps 679 mmHg 22%
    16:00 +16°C° 0 mm 8 mps 679 mmHg 23%
    17:00 +16°C° 0 mm 8 mps 679 mmHg 24%
    18:00 +15°C° 0 mm 7 mps 679 mmHg 26%
    19:00 +14°C° 0 mm 6 mps 679 mmHg 29%
    20:00 +13°C° 0 mm 5 mps 680 mmHg 31%
    21:00 +13°C° 0 mm 4 mps 680 mmHg 33%
    22:00 +12°C° 0 mm 3 mps 680 mmHg 35%
    23:00 +13°C° 0 mm 2 mps 680 mmHg 37%

    26 March, Tuesday

    Time Temperature Precipitation Wind Pressure Humidity
    00:00 +12°C° 0 mm 2 mps 680 mmHg 39%
    01:00 +12°C° 0 mm 2 mps 680 mmHg 42%
    02:00 +12°C° 0 mm 2 mps 680 mmHg 44%
    03:00 +10°C° 0 mm 2 mps 680 mmHg 47%
    04:00 +10°C° 0 mm 2 mps 680 mmHg 50%
    05:00 +9°C° 0 mm 2 mps 680 mmHg 52%
    06:00 +10°C° 0 mm 2 mps 681 mmHg 51%
    07:00 +10°C° 0 mm 2 mps 681 mmHg 50%
    08:00 +12°C° 0 mm 1 mps 682 mmHg 48%
    09:00 +13°C° 0 mm 1 mps 682 mmHg 43%
    10:00 +15°C° 0 mm 1 mps 683 mmHg 37%
    11:00 +16°C° 0 mm 1 mps 683 mmHg 32%
    12:00 +17°C° 0 mm 2 mps 683 mmHg 29%
    13:00 +18°C° 0 mm 2 mps 683 mmHg 25%
    14:00 +19°C° 0 mm 3 mps 683 mmHg 22%
    15:00 +18°C° 0 mm 3 mps 683 mmHg 24%
    16:00 +18°C° 0 mm 3 mps 683 mmHg 25%
    17:00 +18°C° 0 mm 3 mps 683 mmHg 27%
    18:00 +17°C° 0 mm 2 mps 683 mmHg 30%
    19:00 +16°C° 0 mm 2 mps 684 mmHg 34%
    20:00 +15°C° 0 mm 1 mps 684 mmHg 37%
    21:00 +15°C° 0 mm 1 mps 684 mmHg 39%
    22:00 +14°C° 0 mm 1 mps 684 mmHg 40%
    23:00 +14°C° 0 mm 1 mps 684 mmHg 42%

    27 March, Wednesday

    Time Temperature Precipitation Wind Pressure Humidity
    00:00 +13°C° 0 mm 1 mps 683 mmHg 41%
    01:00 +13°C° 0 mm 1 mps 683 mmHg 41%
    02:00 +13°C° 0 mm 1 mps 683 mmHg 41%
    03:00 +12°C° 0 mm 1 mps 683 mmHg 41%
    04:00 +12°C° 0 mm 1 mps 683 mmHg 41%
    05:00 +11°C° 0 mm 1 mps 683 mmHg 41%
    06:00 +13°C° 0 mm 1 mps 684 mmHg 37%
    07:00 +14°C° 0 mm 1 mps 685 mmHg 33%
    08:00 +15°C° 0 mm 1 mps 686 mmHg 30%
    09:00 +16°C° 0 mm 1 mps 686 mmHg 26%
    10:00 +19°C° 0 mm 1 mps 686 mmHg 23%
    11:00 +20°C° 0 mm 1 mps 686 mmHg 20%
    12:00 +19°C° 0 mm 2 mps 686 mmHg 18%
    13:00 +20°C° 0 mm 2 mps 685 mmHg 17%
    14:00 +21°C° 0 mm 3 mps 685 mmHg 16%
    15:00 +21°C° 0 mm 3 mps 685 mmHg 17%
    16:00 +20°C° 0 mm 3 mps 685 mmHg 18%
    17:00 +20°C° 0 mm 3 mps 685 mmHg 20%
    18:00 +19°C° 0 mm 3 mps 685 mmHg 22%
    19:00 +18°C° 0 mm 2 mps 685 mmHg 25%
    20:00 +18°C° 0 mm 1 mps 685 mmHg 28%
    21:00 +18°C° 0 mm 1 mps 685 mmHg 28%
    22:00 +16°C° 0 mm 1 mps 684 mmHg 28%
    23:00 +16°C° 0 mm 1 mps 684 mmHg 29%
    Show more